Latest Coastal Weather Observations for Mackay

IDQ60701

Issued at 4:43 pm EST Wednesday 8 February 2023 (issued every 10 minutes, with the page automatically refreshed every 10 minutes)

About coastal observations | Map of coastal stations | Coastal observations for QLD | Marine services | Other Formats
Station Details ID: 033119 Name: MACKAY M.O Lat: -21.12 Lon: 149.22 Height: 30.26 m
Data from the previous 72 hours. | See also: Recent months at Mackay
Date/Time
EST
Wind Sea
Height
m
Swell Vis
km
Cloud Weather Temp
°C
Press
MSL
hPa
Rain since
9am
mm
Dir  Spd
kts
Gust
kts
Height
m
Period
s
Dir
08/04:30pm SSE 17 28 - - - - - Partly cloudy - 25.1 1003.8 1.4
08/04:25pm SSE 15 26 - - - - - Partly cloudy - 25.2 1003.8 1.2
08/04:00pm SSE 16 23 - - - - - Partly cloudy - 25.3 1003.8 0.6
08/03:51pm SSE 14 24 - - - - - Partly cloudy - 25.7 1003.7 0.6
08/03:32pm SSE 15 25 - - - - - Partly cloudy - 25.5 1003.8 0.6
08/03:30pm SSE 16 25 - - - - - Partly cloudy - 25.4 1003.7 0.6
08/03:09pm SE 16 27 - - - - - Partly cloudy - 25.9 1003.8 0.4
08/03:00pm SSE 17 25 - - - - - Cloudy - 27.0 1003.8 0.2
08/02:30pm SSE 15 25 - - - - - Partly cloudy - 27.0 1003.7 0.2
08/02:00pm SSE 15 26 - - - - - Partly cloudy - 26.9 1004.0 0.2
08/01:55pm SSE 15 25 - - - - - Partly cloudy - 27.1 1004.1 0.2
08/01:30pm SSE 15 23 - - - - - Partly cloudy - 28.1 1004.3 0.2
08/01:04pm SSE 15 25 - - - - - Partly cloudy - 27.1 1004.7 0.2
08/01:00pm SSE 15 24 - - - - - Partly cloudy - 27.2 1004.7 0.2
08/12:30pm SSE 16 24 - - - - - Partly cloudy - 27.3 1005.1 0.2
08/12:00pm SSE 15 24 - - - - - Cloudy - 27.3 1005.4 0.0
08/11:30am SSE 15 25 - - - - - Cloudy - 26.8 1005.8 0.0
08/11:02am SSE 15 25 - - - - - Partly cloudy - 27.5 1006.1 0.0
08/11:00am SSE 16 25 - - - - - Partly cloudy - 27.3 1006.1 0.0
08/10:41am SSE 15 25 - - - - - Partly cloudy - 27.2 1006.2 0.0
08/10:30am SSE 15 22 - - - - - Cloudy - 26.7 1006.4 0.0
08/10:00am SSE 14 23 - - - - - Partly cloudy - 26.5 1006.6 0.0
08/09:30am SSE 16 23 - - - - - Cloudy - 26.3 1006.5 0.0
08/09:00am S 14 21 - - - - - Cloudy - 26.0 1006.8 1.4
08/08:30am S 14 22 - - - - - Cloudy - 25.7 1006.8 1.4
08/08:00am S 13 19 - - - - - Partly cloudy - 25.6 1006.8 1.4
08/07:30am S 13 19 - - - - - Partly cloudy - 25.3 1006.6 1.4
08/07:00am S 12 18 - - - - - Partly cloudy - 24.9 1006.3 1.4
08/06:30am S 12 17 - - - - - Partly cloudy - 25.1 1006.2 1.4
08/06:00am SSE 14 21 - - - - - Cloudy - 26.6 1005.6 1.4
08/05:30am SSE 13 22 - - - - - Partly cloudy - 26.6 1005.7 1.4
08/05:00am SSE 14 24 - - - - - Partly cloudy - 26.5 1005.5 1.4
08/04:33am SSE 15 25 - - - - - Partly cloudy - 26.5 1005.6 1.4
08/04:30am SSE 14 25 - - - - - Partly cloudy - 26.5 1005.6 1.4
08/04:00am SE 13 21 - - - - - Partly cloudy - 26.7 1005.8 1.4
08/03:30am SE 14 23 - - - - - Partly cloudy - 26.7 1005.8 1.4
08/03:00am SE 12 21 - - - - - Cloudy - 27.0 1005.9 1.4
08/02:30am SE 15 24 - - - - - Cloudy - 27.0 1006.2 1.4
08/02:00am SE 15 23 - - - - - Cloudy - 27.0 1006.6 1.4
08/01:30am SE 14 23 - - - - - Partly cloudy - 27.1 1006.8 1.4
08/01:00am SE 13 22 - - - - - Partly cloudy - 27.1 1007.1 1.4
08/12:30am SE 13 21 - - - - - Partly cloudy - 27.1 1007.3 1.4
08/12:00am SE 14 21 - - - - - Cloudy - 27.1 1007.8 1.4
 
Date/Time
EST
Wind Sea
Height
m
Swell Vis
km
Cloud Weather Temp
°C
Press
MSL
hPa
Rain since
9am
mm
Dir  Spd
kts
Gust
kts
Height
m
Period
s
Dir
07/11:42pm SSE 15 28 - - - - - Partly cloudy - 26.9 1007.8 1.4
07/11:30pm SE 14 25 - - - - - Partly cloudy - 27.1 1008.1 1.4
07/11:00pm SE 15 23 - - - - - Partly cloudy - 27.2 1008.3 1.4
07/10:30pm SE 15 25 - - - - - Partly cloudy - 27.4 1008.5 1.4
07/10:29pm SE 15 25 - - - - - Partly cloudy - 27.4 1008.4 1.4
07/10:00pm SE 15 24 - - - - - Partly cloudy - 27.4 1008.3 1.4
07/09:44pm SE 15 25 - - - - - Partly cloudy - 27.5 1008.4 1.4
07/09:30pm SE 13 23 - - - - - Partly cloudy - 27.5 1008.4 1.4
07/09:00pm SE 13 21 - - - - - Cloudy - 27.5 1008.4 1.4
07/08:30pm SSE 13 21 - - - - - Partly cloudy - 27.3 1008.1 1.4
07/08:00pm SSE 15 24 - - - - - Partly cloudy - 27.1 1008.0 1.4
07/07:47pm SSE 15 25 - - - - - Partly cloudy - 27.4 1007.7 1.4
07/07:30pm SSE 16 23 - - - - - Partly cloudy - 27.3 1007.5 1.4
07/07:00pm SE 13 22 - - - - - Partly cloudy - 27.3 1007.2 1.4
07/06:30pm SE 12 22 - - - - - Partly cloudy - 26.4 1007.0 1.4
07/06:07pm SE 13 21 - - - - - Partly cloudy - 27.4 1006.6 1.4
07/06:00pm SE 13 25 - - - - - Cloudy - 27.4 1006.7 1.4
07/05:51pm SSE 14 23 - - - - - Partly cloudy - 27.4 1006.6 1.4
07/05:30pm SE 13 20 - - - - - Partly cloudy - 27.6 1006.5 1.4
07/05:00pm SE 14 23 - - - - - Partly cloudy - 27.5 1006.4 1.4
07/04:30pm SE 12 21 - - - - - Partly cloudy - 28.8 1006.4 1.4
07/04:00pm SSE 13 20 - - - - - Partly cloudy - 27.7 1006.5 1.4
07/03:30pm SE 12 18 - - - - - Partly cloudy - 29.4 1006.4 1.4
07/03:00pm SSE 11 18 - - - - - Cloudy - 27.6 1006.7 1.4
07/02:30pm SSE 13 20 - - - - - Partly cloudy - 28.0 1007.0 1.4
07/02:00pm SE 11 19 - - - - - Partly cloudy - 26.9 1007.3 1.4
07/01:30pm SSE 13 21 - - - - - Partly cloudy - 29.3 1007.3 0.4
07/01:00pm SSE 13 21 - - - - - Partly cloudy - 30.1 1007.5 0.4
07/12:30pm SSE 13 21 - - - - - Partly cloudy - 29.8 1007.9 0.4
07/12:00pm SSE 14 21 - - - - - Cloudy - 29.7 1008.0 0.4
07/11:30am SSE 13 18 - - - - - Partly cloudy - 29.9 1008.4 0.4
07/11:00am SSE 14 22 - - - - - Partly cloudy - 29.3 1008.6 0.4
07/10:30am SSE 13 21 - - - - - Partly cloudy - 29.4 1008.7 0.4
07/10:19am SSE 13 20 - - - - - Partly cloudy - 29.0 1008.7 0.4
07/10:05am SSE 10 17 - - - - - Partly cloudy - 27.1 1008.9 0.4
07/10:01am SE 11 19 - - - - - Partly cloudy - 27.3 1008.9 0.0
07/10:00am SE 11 19 - - - - - Partly cloudy - 27.4 1009.0 0.0
07/09:30am SSE 13 23 - - - - - Partly cloudy - 29.3 1009.0 0.0
07/09:25am SSE 14 23 - - - - - Partly cloudy - 28.5 1008.9 0.0
07/09:00am SSE 12 18 - - - - - Mostly cloudy - 29.0 1008.9 7.0
07/08:54am SSE 11 18 - - - - - Partly cloudy - 28.9 1009.0 7.0
07/08:30am SSE 10 20 - - - - - Partly cloudy - 28.2 1008.8 7.0
07/08:00am SSE 11 17 - - - - - Partly cloudy - 28.2 1008.8 7.0
07/07:54am SE 11 17 - - - - - Partly cloudy - 27.8 1008.7 7.0
07/07:30am SE 10 16 - - - - - Partly cloudy - 27.2 1008.5 7.0
07/07:00am SE 9 16 - - - - - Partly cloudy - 26.4 1008.3 7.0
07/06:30am SE 9 14 - - - - - Partly cloudy - 27.0 1007.8 6.2
07/06:00am SE 9 15 - - - - - Cloudy - 26.9 1007.5 6.2
07/05:30am SE 10 16 - - - - - Partly cloudy - 26.9 1007.4 6.2
07/05:00am SE 9 15 - - - - - Partly cloudy - 26.4 1007.5 6.2
07/04:30am SSE 7 9 - - - - - Partly cloudy - 25.5 1007.6 6.2
07/04:00am SE 7 10 - - - - - Partly cloudy - 24.7 1007.6 6.2
07/03:30am SSE 9 15 - - - - - Partly cloudy - 26.5 1007.3 3.6
07/03:00am SE 7 13 - - - - - Partly cloudy Recent precip. 26.1 1007.3 3.6
07/02:30am E 8 12 - - - - - Partly cloudy - 26.1 1007.6 3.6
07/02:00am SE 10 17 - - - - - Partly cloudy - 26.9 1007.9 1.4
07/01:30am SE 9 17 - - - - - Partly cloudy - 26.6 1008.2 1.4
07/01:00am SE 11 18 - - - - - Partly cloudy - 26.3 1008.3 1.4
07/12:35am ESE 11 17 - - - - - Partly cloudy - 26.1 1008.8 1.4
07/12:30am ESE 11 16 - - - - - Partly cloudy - 26.2 1008.9 1.4
07/12:00am ESE 7 13 - - - - - Cloudy Recent precip. 26.4 1009.1 1.2
 
Date/Time
EST
Wind Sea
Height
m
Swell Vis
km
Cloud Weather Temp
°C
Press
MSL
hPa
Rain since
9am
mm
Dir  Spd
kts
Gust
kts
Height
m
Period
s
Dir
06/11:30pm SE 11 17 - - - - - Partly cloudy - 27.8 1009.5 0.2
06/11:12pm SE 9 16 - - - - - Partly cloudy - 27.4 1009.5 0.2
06/11:00pm SSE 9 15 - - - - - Partly cloudy - 27.3 1009.7 0.2
06/10:30pm SE 8 14 - - - - - Partly cloudy - 27.3 1009.8 0.2
06/10:00pm SSE 9 14 - - - - - Partly cloudy - 26.7 1009.8 0.2
06/09:30pm SE 11 19 - - - - - Partly cloudy - 26.3 1009.8 0.2
06/09:00pm SE 11 18 - - - - - Cloudy - 27.8 1009.5 0.2
06/08:30pm SE 9 16 - - - - - Partly cloudy - 27.6 1009.4 0.2
06/08:00pm SE 10 15 - - - - - Partly cloudy - 27.7 1009.2 0.2
06/07:30pm SE 9 13 - - - - - Partly cloudy - 27.9 1009.1 0.2
06/07:00pm ESE 7 13 - - - - - Partly cloudy - 27.6 1009.0 0.2
06/06:30pm E 9 13 - - - - - Partly cloudy - 27.1 1008.5 0.2
06/06:00pm ESE 6 9 - - - - - - - 28.0 1008.3 0.0
06/05:30pm ESE 8 13 - - - - - Partly cloudy - 28.3 1008.2 0.0
06/05:00pm SE 8 14 - - - - - Cloudy - 29.2 1008.4 0.0
06/04:30pm ESE 8 13 - - - - - Partly cloudy - 29.4 1008.2 0.0
06/04:00pm ESE 7 11 - - - - - Partly cloudy - 29.2 1008.3 0.0
06/03:30pm ESE 9 15 - - - - - Partly cloudy - 29.8 1008.5 0.0
06/03:00pm SE 10 16 - - - - - - - 30.4 1008.6 0.0
06/02:30pm SE 10 16 - - - - - Partly cloudy - 30.1 1008.8 0.0
06/02:00pm SSE 11 19 - - - - - Partly cloudy - 28.1 1009.2 0.0
06/01:30pm SE 10 15 - - - - - Partly cloudy - 30.1 1009.2 0.0
06/01:00pm SE 11 16 - - - - - Partly cloudy - 29.6 1009.5 0.0
06/12:30pm SE 9 16 - - - - - Partly cloudy - 29.6 1009.8 0.0
06/12:00pm SE 11 18 - - - - - Cloudy - 30.6 1009.9 0.0
06/11:30am SE 9 15 - - - - - Partly cloudy - 30.8 1010.1 0.0
06/11:00am SE 10 14 - - - - - Partly cloudy - 30.3 1010.5 0.0
06/10:30am SE 9 15 - - - - - Partly cloudy - 29.8 1010.7 0.0
06/10:00am SE 8 13 - - - - - Partly cloudy - 30.5 1011.0 0.0
06/09:31am SE 10 16 - - - - - Partly cloudy - 30.4 1010.9 0.0
06/09:30am SE 10 16 - - - - - Partly cloudy - 30.5 1010.9 0.0
06/09:20am SE 8 14 - - - - - Partly cloudy - 30.5 1011.0 0.0
06/09:00am SE 8 14 - - - - - Partly cloudy - 30.2 1010.9 0.2
06/08:55am SE 9 14 - - - - - Partly cloudy - 29.8 1010.9 0.2
06/08:43am SE 8 13 - - - - - Partly cloudy - 29.8 1011.0 0.2
06/08:30am SE 9 14 - - - - - Partly cloudy - 29.4 1010.9 0.2
06/08:00am SE 8 13 - - - - - Partly cloudy - 28.4 1010.9 0.2
06/07:30am SE 9 14 - - - - - Partly cloudy - 28.3 1010.5 0.2
06/07:00am SE 9 13 - - - - - Partly cloudy - 28.3 1010.4 0.2
06/06:30am SE 8 13 - - - - - Partly cloudy - 28.2 1010.3 0.2
06/06:00am SE 8 11 - - - - - Partly cloudy - 27.7 1009.8 0.2
06/05:30am SE 7 10 - - - - - Partly cloudy - 27.6 1009.3 0.2
06/05:00am SE 8 13 - - - - - Partly cloudy - 27.7 1009.0 0.2
06/04:30am ESE 8 13 - - - - - Partly cloudy - 27.7 1008.7 0.2
06/04:00am ESE 9 13 - - - - - - - 27.8 1008.6 0.2
06/03:30am ESE 8 12 - - - - - Partly cloudy - 27.7 1008.6 0.2
06/03:00am ESE 7 11 - - - - - Partly cloudy - 27.9 1008.6 0.2
06/02:30am ESE 7 11 - - - - - Partly cloudy - 27.9 1008.6 0.2
06/02:00am ESE 7 13 - - - - - Partly cloudy - 27.9 1008.6 0.2
06/01:30am ESE 8 12 - - - - - Partly cloudy - 28.0 1008.8 0.2
06/01:00am E 8 13 - - - - - - - 28.0 1009.2 0.2
06/12:30am ESE 7 11 - - - - - Partly cloudy - 27.9 1009.8 0.2
06/12:00am ESE 7 11 - - - - - Mostly clear Recent precip. 27.9 1010.1 0.2
 
Date/Time
EST
Wind Sea
Height
m
Swell Vis
km
Cloud Weather Temp
°C
Press
MSL
hPa
Rain since
9am
mm
Dir  Spd
kts
Gust
kts
Height
m
Period
s
Dir
05/11:44pm E 7 11 - - - - - Partly cloudy - 27.7 1010.1 0.2
05/11:30pm E 7 11 - - - - - Partly cloudy - 27.9 1010.2 0.0
05/11:20pm E 8 11 - - - - - Partly cloudy - 28.3 1010.3 0.0
05/11:00pm E 7 10 - - - - - Partly cloudy - 28.1 1010.3 0.0
05/10:30pm E 8 11 - - - - - - - 28.2 1010.2 0.0
05/10:00pm ENE 8 11 - - - - - Partly cloudy - 28.0 1009.8 0.0
05/09:30pm ENE 9 13 - - - - - - - 28.2 1009.7 0.0
05/09:00pm ENE 10 15 - - - - - Partly cloudy - 28.2 1009.4 0.0
05/08:30pm ENE 10 15 - - - - - Partly cloudy - 28.3 1009.2 0.0
05/08:00pm ENE 11 16 - - - - - Partly cloudy - 28.4 1008.9 0.0
05/07:30pm E 11 17 - - - - - Partly cloudy - 28.6 1008.5 0.0
05/07:00pm ENE 10 15 - - - - - Partly cloudy - 28.4 1008.0 0.0
05/06:30pm ENE 10 14 - - - - - Partly cloudy - 29.2 1007.8 0.0
05/06:00pm ENE 10 14 - - - - - Cloudy - 29.0 1007.5 0.0
05/05:30pm E 9 14 - - - - - Cloudy - 29.1 1007.2 0.0
05/05:00pm E 9 14 - - - - - Partly cloudy - 29.4 1007.1 0.0

Other formats

Comma delimited format used in spreadsheet applications
http://www.bom.gov.au/fwo/IDQ60701/IDQ60701.94367.axf

JavaScript Object Notation format (JSON) in row-major order
http://www.bom.gov.au/fwo/IDQ60701/IDQ60701.94367.json

Data quality

Most of these data are generated automatically and are frequently updated. Quality checks on data are not normally performed. It is possible for incorrect values to appear. Refer to information at About Latest Weather Observations and please check the disclaimer before using these data.